CST,Max TemperatureF,Mean TemperatureF,Min TemperatureF,Max Dew PointF,MeanDew PointF,Min DewpointF,Max Humidity, Mean Humidity, Min Humidity, Max Sea Level PressureIn, Mean Sea Level PressureIn, Min Sea Level PressureIn, Max VisibilityMiles, Mean VisibilityMiles, Min VisibilityMiles, Max Wind SpeedMPH, Mean Wind SpeedMPH, Max Gust SpeedMPH,PrecipitationIn, CloudCover, Events, WindDirDegrees
2012-12-1,66,58,51,52,49,46,86,67,59,30.17,30.10,30.03,10,10,9,17,6,22,0.00,6,,179
2012-12-2,69,64,59,61,58,48,93,79,60,30.12,30.07,30.04,10,9,6,18,12,25,0.00,6,,196
2012-12-3,70,64,57,60,58,54,93,77,63,30.09,30.04,29.99,10,10,8,21,9,29,0.00,6,,186
2012-12-4,66,54,43,61,55,38,94,85,74,30.30,30.10,30.00,10,8,1,13,6,20,0.48,6,Rain-Thunderstorm,300
2012-12-5,62,48,35,41,37,32,93,70,39,30.36,30.26,30.13,10,10,10,9,6,,0.00,0,,27
2012-12-6,55,49,43,54,46,37,96,80,64,30.10,29.99,29.93,10,8,0,10,4,,0.00,8,Fog,119
2012-12-7,64,60,55,56,54,51,100,85,63,29.91,29.88,29.82,10,6,0,13,5,,0.00,5,Fog,203
2012-12-8,59,54,48,55,50,46,100,88,75,29.94,29.90,29.84,10,5,0,12,5,,0.00,7,Fog,39
2012-12-9,66,57,48,63,54,40,100,90,74,29.88,29.80,29.70,10,6,0,20,6,25,0.68,8,Fog-Rain-Thunderstorm,359
2012-12-10,46,35,24,39,25,19,80,69,55,30.14,29.98,29.86,10,10,10,16,10,21,0.00,5,,325
2012-12-11,39,30,21,25,22,18,85,74,57,30.28,30.20,30.12,10,10,10,9,2,,0.00,0,,224
2012-12-12,48,34,21,30,26,18,89,75,48,30.40,30.34,30.29,10,9,6,7,1,,0.00,0,,184
2012-12-13,53,38,24,31,26,20,89,71,40,30.41,30.34,30.27,10,10,6,9,2,,0.00,0,,181
2012-12-14,53,40,27,42,33,23,93,73,47,30.30,30.20,30.02,10,10,8,9,2,,0.01,1,Rain,171
2012-12-15,62,54,46,58,52,42,90,87,80,30.00,29.81,29.72,10,10,6,24,12,34,0.15,7,Rain,193
2012-12-16,60,50,39,57,49,39,100,91,77,29.78,29.73,29.66,10,5,0,8,4,,0.00,3,Fog,208
2012-12-17,52,44,34,52,45,31,100,87,68,29.85,29.69,29.61,10,7,1,14,4,44,0.00,6,,261
2012-12-18,57,42,28,43,33,27,100,84,53,29.90,29.86,29.80,10,5,0,15,2,24,0.00,1,Fog,204
2012-12-19,62,48,35,53,45,32,96,79,60,29.96,29.83,29.54,10,9,5,23,5,31,0.00,5,,108
2012-12-20,64,49,34,59,40,18,94,70,48,30.08,29.62,29.37,10,9,2,30,19,44,0.32,6,Rain-Thunderstorm,237
2012-12-21,48,37,24,19,14,8,77,45,21,30.34,30.25,30.09,10,10,8,16,11,25,0.00,0,Snow,295
2012-12-22,48,34,21,31,23,17,85,68,37,30.35,30.22,30.04,10,10,10,10,2,,0.00,0,,161
2012-12-23,57,48,39,47,40,30,93,74,59,30.03,29.92,29.82,10,9,4,12,5,,0.00,4,,205
2012-12-24,53,42,30,48,38,23,100,78,40,30.10,29.89,29.77,10,5,0,15,4,21,0.00,4,Fog,349
2012-12-25,37,32,28,29,24,21,85,72,62,30.16,30.00,29.76,10,7,1,34,16,45,0.01,6,Snow,29
2012-12-26,36,33,30,29,26,22,88,76,59,30.20,29.90,29.70,10,6,0,34,23,48,0.18,8,Fog-Snow-Thunderstorm,347
2012-12-27,35,28,21,27,23,18,88,77,64,30.23,30.16,30.07,10,10,9,8,3,,0.00,2,,78
2012-12-28,37,34,32,32,31,28,93,89,81,30.08,29.91,29.85,10,4,1,9,5,,0.42,8,Rain-Snow,351
2012-12-29,35,28,21,32,24,18,93,79,69,30.41,30.18,29.92,10,6,2,20,10,26,0.00,6,Snow,299
2012-12-30,37,28,18,28,22,14,89,78,65,30.52,30.44,30.33,10,8,2,8,2,,0.00,0,,199
2012-12-31,39,36,34,36,33,28,100,87,76,30.32,30.14,30.05,10,5,1,10,3,,0.36,8,Rain,140